When you browse on this site, cookies collect data to enhance your experience and personalize the content and advertising you see.
Visit our Privacy Policy to learn more. By continuing to use the site, you agree to this use of cookies and data.
  • In United Kingdom
  • List of Countries
  • For 7 days
  • Water Temperature
  • Satellite Maps
  • Weather Map
  • Weather Widgets
  • user-avatar
    Login

    Hourly Weather Pasto

    Today, 21 November, Wednesday

    Time Temperature Precipitation Wind Pressure Humidity
    00:00 +10°C° 2.6 mm 0 mps 549 mmHg 93%
    01:00 +10°C° 0 mm 0 mps 549 mmHg 92%
    02:00 +10°C° 2.4 mm 0 mps 549 mmHg 92%
    03:00 +10°C° 2.4 mm 0 mps 548 mmHg 92%
    04:00 +10°C° 2.4 mm 0 mps 548 mmHg 92%
    05:00 +10°C° 1.3 mm 0 mps 549 mmHg 91%
    06:00 +10°C° 1.3 mm 0 mps 549 mmHg 91%
    07:00 +11°C° 0 mm 0 mps 549 mmHg 90%
    08:00 +12°C° 0.5 mm 1 mps 550 mmHg 86%
    09:00 +13°C° 0.5 mm 1 mps 550 mmHg 82%
    10:00 +14°C° 0.5 mm 1 mps 551 mmHg 78%
    11:00 +14°C° 0.4 mm 1 mps 551 mmHg 78%
    12:00 +15°C° 0.4 mm 1 mps 551 mmHg 78%
    13:00 +15°C° 0.4 mm 1 mps 550 mmHg 78%
    14:00 +15°C° 0.7 mm 1 mps 550 mmHg 81%
    15:00 +14°C° 0.7 mm 1 mps 549 mmHg 85%
    16:00 +14°C° 0.7 mm 1 mps 549 mmHg 88%
    17:00 +13°C° 0.9 mm 1 mps 548 mmHg 90%
    18:00 +12°C° 0.9 mm 1 mps 548 mmHg 92%
    19:00 +11°C° 0.9 mm 0 mps 548 mmHg 94%
    20:00 +11°C° 0.9 mm 0 mps 549 mmHg 94%
    21:00 +11°C° 0.9 mm 0 mps 549 mmHg 94%
    22:00 +11°C° 0.9 mm 0 mps 549 mmHg 94%
    23:00 +10°C° 0.8 mm 0 mps 549 mmHg 93%

    Tomorrow, 22 November, Thursday

    Time Temperature Precipitation Wind Pressure Humidity
    00:00 +10°C° 0.8 mm 0 mps 549 mmHg 93%
    01:00 +10°C° 0.8 mm 0 mps 549 mmHg 92%
    02:00 +10°C° 0.5 mm 0 mps 548 mmHg 92%
    03:00 +11°C° 0.5 mm 1 mps 548 mmHg 92%
    04:00 +11°C° 0.5 mm 1 mps 548 mmHg 91%
    05:00 +11°C° 0.2 mm 1 mps 548 mmHg 90%
    06:00 +11°C° 0.2 mm 1 mps 549 mmHg 89%
    07:00 +10°C° 0.2 mm 0 mps 549 mmHg 87%
    08:00 +12°C° 0.2 mm 1 mps 550 mmHg 84%
    09:00 +13°C° 0.2 mm 1 mps 550 mmHg 81%
    10:00 +14°C° 0.2 mm 1 mps 551 mmHg 78%
    11:00 +14°C° 0.7 mm 1 mps 551 mmHg 78%
    12:00 +15°C° 0.7 mm 1 mps 550 mmHg 79%
    13:00 +15°C° 0.7 mm 1 mps 550 mmHg 79%
    14:00 +14°C° 0.7 mm 1 mps 549 mmHg 81%
    15:00 +14°C° 0.7 mm 1 mps 549 mmHg 83%
    16:00 +13°C° 0.7 mm 1 mps 548 mmHg 85%
    17:00 +13°C° 0.5 mm 1 mps 548 mmHg 88%
    18:00 +12°C° 0.5 mm 1 mps 548 mmHg 91%
    19:00 +11°C° 0.5 mm 1 mps 548 mmHg 93%
    20:00 +11°C° 0.2 mm 1 mps 548 mmHg 93%
    21:00 +11°C° 0.2 mm 1 mps 548 mmHg 92%
    22:00 +11°C° 0.2 mm 1 mps 549 mmHg 92%
    23:00 +10°C° 0.1 mm 1 mps 548 mmHg 91%

    Day after tomorrow, 23 November, Friday

    Time Temperature Precipitation Wind Pressure Humidity
    00:00 +10°C° 0.1 mm 1 mps 548 mmHg 91%
    01:00 +10°C° 0.1 mm 1 mps 548 mmHg 90%
    02:00 +10°C° 0 mm 1 mps 547 mmHg 90%
    03:00 +10°C° 0 mm 1 mps 547 mmHg 90%
    04:00 +9°C° 0 mm 1 mps 546 mmHg 90%
    05:00 +10°C° 0 mm 1 mps 547 mmHg 88%
    06:00 +10°C° 0 mm 1 mps 547 mmHg 86%
    07:00 +11°C° 0 mm 1 mps 548 mmHg 84%
    08:00 +13°C° 0 mm 1 mps 549 mmHg 74%
    09:00 +15°C° 0 mm 1 mps 551 mmHg 64%
    10:00 +17°C° 0 mm 2 mps 552 mmHg 54%
    11:00 +18°C° 0.1 mm 2 mps 552 mmHg 56%
    12:00 +18°C° 0.1 mm 2 mps 551 mmHg 59%
    13:00 +18°C° 0.1 mm 2 mps 551 mmHg 61%
    14:00 +17°C° 0.4 mm 2 mps 550 mmHg 67%
    15:00 +16°C° 0.4 mm 2 mps 549 mmHg 72%
    16:00 +15°C° 0.4 mm 2 mps 548 mmHg 78%
    17:00 +14°C° 0.2 mm 2 mps 548 mmHg 84%
    18:00 +12°C° 0.2 mm 2 mps 547 mmHg 89%
    19:00 +11°C° 0.2 mm 1 mps 547 mmHg 95%
    20:00 +10°C° 0.1 mm 1 mps 547 mmHg 93%
    21:00 +10°C° 0.1 mm 1 mps 548 mmHg 92%
    22:00 +10°C° 0.1 mm 1 mps 548 mmHg 90%
    23:00 +9°C° 0 mm 1 mps 548 mmHg 88%

    24 November, Saturday

    Time Temperature Precipitation Wind Pressure Humidity
    00:00 +9°C° 0 mm 1 mps 547 mmHg 86%
    01:00 +9°C° 0 mm 1 mps 547 mmHg 85%
    02:00 +9°C° 0 mm 1 mps 546 mmHg 83%
    03:00 +9°C° 0 mm 1 mps 546 mmHg 82%
    04:00 +9°C° 0 mm 1 mps 546 mmHg 80%
    05:00 +9°C° 0 mm 1 mps 546 mmHg 78%
    06:00 +10°C° 0 mm 1 mps 547 mmHg 76%
    07:00 +11°C° 0 mm 1 mps 548 mmHg 74%
    08:00 +13°C° 0 mm 1 mps 549 mmHg 66%
    09:00 +15°C° 0 mm 1 mps 550 mmHg 57%
    10:00 +17°C° 0 mm 2 mps 552 mmHg 49%
    11:00 +17°C° 0 mm 2 mps 551 mmHg 51%
    12:00 +17°C° 0 mm 2 mps 551 mmHg 53%
    13:00 +17°C° 0 mm 2 mps 550 mmHg 55%
    14:00 +17°C° 0.2 mm 2 mps 549 mmHg 61%
    15:00 +16°C° 0.2 mm 2 mps 549 mmHg 66%
    16:00 +15°C° 0.2 mm 2 mps 548 mmHg 72%
    17:00 +14°C° 0.1 mm 2 mps 547 mmHg 78%
    18:00 +12°C° 0.1 mm 1 mps 547 mmHg 85%
    19:00 +11°C° 0.1 mm 1 mps 547 mmHg 92%
    20:00 +10°C° 0.1 mm 1 mps 547 mmHg 90%
    21:00 +10°C° 0.1 mm 1 mps 547 mmHg 88%
    22:00 +10°C° 0.1 mm 1 mps 548 mmHg 86%
    23:00 +10°C° 0.1 mm 1 mps 548 mmHg 85%

    25 November, Sunday

    Time Temperature Precipitation Wind Pressure Humidity
    00:00 +9°C° 0.1 mm 1 mps 547 mmHg 83%
    01:00 +9°C° 0.1 mm 1 mps 547 mmHg 82%
    02:00 +9°C° 0 mm 1 mps 547 mmHg 81%
    03:00 +9°C° 0 mm 1 mps 546 mmHg 81%
    04:00 +9°C° 0 mm 1 mps 546 mmHg 81%
    05:00 +10°C° 0 mm 1 mps 547 mmHg 79%
    06:00 +10°C° 0 mm 1 mps 548 mmHg 78%
    07:00 +11°C° 0 mm 1 mps 548 mmHg 77%
    08:00 +13°C° 0 mm 1 mps 549 mmHg 71%
    09:00 +15°C° 0 mm 1 mps 551 mmHg 64%
    10:00 +18°C° 0 mm 1 mps 552 mmHg 58%
    11:00 +17°C° 0.1 mm 2 mps 551 mmHg 61%
    12:00 +17°C° 0.1 mm 2 mps 550 mmHg 63%
    13:00 +17°C° 0.1 mm 2 mps 550 mmHg 66%
    14:00 +16°C° 0.4 mm 2 mps 549 mmHg 71%
    15:00 +15°C° 0.4 mm 2 mps 548 mmHg 75%
    16:00 +14°C° 0.4 mm 2 mps 547 mmHg 80%
    17:00 +13°C° 0.6 mm 1 mps 547 mmHg 85%
    18:00 +12°C° 0.6 mm 1 mps 547 mmHg 90%
    19:00 +11°C° 0.6 mm 1 mps 547 mmHg 95%
    20:00 +11°C° 0.4 mm 1 mps 548 mmHg 95%
    21:00 +11°C° 0.4 mm 1 mps 548 mmHg 95%
    22:00 +11°C° 0.4 mm 1 mps 548 mmHg 95%
    23:00 +11°C° 0.7 mm 1 mps 548 mmHg 95%

    26 November, Monday

    Time Temperature Precipitation Wind Pressure Humidity
    00:00 +11°C° 0.7 mm 1 mps 548 mmHg 95%
    01:00 +11°C° 0.7 mm 1 mps 548 mmHg 94%
    02:00 +11°C° 0.9 mm 1 mps 547 mmHg 94%
    03:00 +10°C° 0.9 mm 1 mps 547 mmHg 93%
    04:00 +10°C° 0.9 mm 1 mps 547 mmHg 93%
    05:00 +10°C° 0.7 mm 1 mps 547 mmHg 91%
    06:00 +11°C° 0.7 mm 1 mps 548 mmHg 90%
    07:00 +11°C° 0.7 mm 1 mps 548 mmHg 89%
    08:00 +12°C° 0.2 mm 1 mps 549 mmHg 83%
    09:00 +13°C° 0.2 mm 1 mps 550 mmHg 78%
    10:00 +15°C° 0.2 mm 1 mps 551 mmHg 72%
    11:00 +15°C° 0.2 mm 2 mps 550 mmHg 70%
    12:00 +16°C° 0.2 mm 2 mps 550 mmHg 69%
    13:00 +16°C° 0.2 mm 2 mps 550 mmHg 67%
    14:00 +16°C° 0.5 mm 2 mps 549 mmHg 72%
    15:00 +15°C° 0.5 mm 2 mps 548 mmHg 76%
    16:00 +14°C° 0.5 mm 2 mps 548 mmHg 80%
    17:00 +13°C° 0.9 mm 2 mps 548 mmHg 85%
    18:00 +12°C° 0.9 mm 1 mps 547 mmHg 89%
    19:00 +11°C° 0.9 mm 1 mps 547 mmHg 94%
    20:00 +11°C° 1 mm 1 mps 548 mmHg 94%
    21:00 +11°C° 1 mm 1 mps 548 mmHg 94%
    22:00 +11°C° 1 mm 1 mps 548 mmHg 94%
    23:00 +11°C° 0.7 mm 1 mps 548 mmHg 94%
    Show more